• In Deutschland
  • Länderverzeichnis
  • Für 7 Tage
  • Wassertemperatur
  • Satellitenkarten
  • Wetterkarte
  • Widgets
  • user-avatar
    Anmelden

    Stündliche Wetter Bad Berleburg

    Heute, 19 Oktober, Donnerstag

    Zeit Temperatur Niederschläge Wind Luftdruck Luftfeuchtigkeit
    00:00 +10°C° 0 mm 1 m/S 716 mmHg 91%
    01:00 +10°C° 0 mm 1 m/S 716 mmHg 91%
    02:00 +10°C° 0 mm 1 m/S 716 mmHg 91%
    03:00 +10°C° 0 mm 1 m/S 716 mmHg 90%
    04:00 +10°C° 0 mm 1 m/S 716 mmHg 90%
    05:00 +10°C° 0 mm 1 m/S 716 mmHg 90%
    06:00 +9°C° 0 mm 1 m/S 716 mmHg 90%
    07:00 +9°C° 0 mm 1 m/S 716 mmHg 89%
    08:00 +11°C° 0 mm 1 m/S 716 mmHg 83%
    09:00 +13°C° 0 mm 2 m/S 716 mmHg 76%
    10:00 +14°C° 0 mm 2 m/S 716 mmHg 70%
    11:00 +16°C° 0 mm 2 m/S 716 mmHg 66%
    12:00 +17°C° 0 mm 2 m/S 716 mmHg 63%
    13:00 +18°C° 0 mm 3 m/S 716 mmHg 60%
    14:00 +18°C° 0 mm 3 m/S 716 mmHg 63%
    15:00 +18°C° 0 mm 2 m/S 716 mmHg 66%
    16:00 +17°C° 0 mm 2 m/S 715 mmHg 69%
    17:00 +16°C° 0 mm 2 m/S 715 mmHg 74%
    18:00 +14°C° 0 mm 2 m/S 715 mmHg 79%
    19:00 +13°C° 0 mm 2 m/S 715 mmHg 83%
    20:00 +13°C° 0 mm 2 m/S 715 mmHg 83%
    21:00 +12°C° 0 mm 2 m/S 715 mmHg 82%
    22:00 +12°C° 0 mm 2 m/S 716 mmHg 82%
    23:00 +12°C° 0 mm 2 m/S 716 mmHg 81%

    Morgen, 20 Oktober, Freitag

    Zeit Temperatur Niederschläge Wind Luftdruck Luftfeuchtigkeit
    00:00 +12°C° 0 mm 2 m/S 716 mmHg 80%
    01:00 +10°C° 0 mm 2 m/S 716 mmHg 79%
    02:00 +12°C° 0 mm 2 m/S 716 mmHg 77%
    03:00 +12°C° 0 mm 2 m/S 716 mmHg 74%
    04:00 +12°C° 0 mm 2 m/S 716 mmHg 72%
    05:00 +12°C° 0,1 mm 2 m/S 716 mmHg 74%
    06:00 +12°C° 0,1 mm 2 m/S 716 mmHg 75%
    07:00 +11°C° 0,1 mm 3 m/S 716 mmHg 76%
    08:00 +11°C° 0,3 mm 3 m/S 716 mmHg 79%
    09:00 +12°C° 0,3 mm 4 m/S 717 mmHg 81%
    10:00 +12°C° 0,3 mm 4 m/S 717 mmHg 84%
    11:00 +12°C° 0,1 mm 4 m/S 717 mmHg 83%
    12:00 +13°C° 0,1 mm 4 m/S 717 mmHg 83%
    13:00 +13°C° 0,1 mm 4 m/S 717 mmHg 82%
    14:00 +13°C° 0,1 mm 4 m/S 717 mmHg 80%
    15:00 +13°C° 0,1 mm 4 m/S 717 mmHg 78%
    16:00 +13°C° 0,1 mm 3 m/S 717 mmHg 76%
    17:00 +12°C° 0 mm 3 m/S 718 mmHg 80%
    18:00 +10°C° 0 mm 2 m/S 718 mmHg 84%
    19:00 +9°C° 0 mm 2 m/S 718 mmHg 88%
    20:00 +9°C° 0 mm 2 m/S 718 mmHg 90%
    21:00 +8°C° 0 mm 2 m/S 718 mmHg 92%
    22:00 +8°C° 0 mm 2 m/S 718 mmHg 93%
    23:00 +8°C° 0 mm 2 m/S 718 mmHg 94%

    übermorgen, 21 Oktober, Samstag

    Zeit Temperatur Niederschläge Wind Luftdruck Luftfeuchtigkeit
    00:00 +9°C° 0 mm 2 m/S 718 mmHg 94%
    01:00 +9°C° 0 mm 2 m/S 717 mmHg 95%
    02:00 +10°C° 0 mm 2 m/S 717 mmHg 95%
    03:00 +10°C° 0 mm 2 m/S 717 mmHg 95%
    04:00 +10°C° 0 mm 2 m/S 717 mmHg 95%
    05:00 +10°C° 0 mm 2 m/S 716 mmHg 95%
    06:00 +10°C° 0 mm 3 m/S 716 mmHg 95%
    07:00 +10°C° 0 mm 3 m/S 716 mmHg 95%
    08:00 +11°C° 0 mm 3 m/S 716 mmHg 91%
    09:00 +12°C° 0 mm 4 m/S 716 mmHg 87%
    10:00 +13°C° 0 mm 5 m/S 716 mmHg 83%
    11:00 +13°C° 0,2 mm 4 m/S 717 mmHg 84%
    12:00 +13°C° 0,2 mm 4 m/S 717 mmHg 85%
    13:00 +14°C° 0,2 mm 4 m/S 717 mmHg 85%
    14:00 +13°C° 0,1 mm 4 m/S 717 mmHg 85%
    15:00 +13°C° 0,1 mm 4 m/S 716 mmHg 86%
    16:00 +13°C° 0,1 mm 3 m/S 716 mmHg 86%
    17:00 +12°C° 0,2 mm 3 m/S 716 mmHg 86%
    18:00 +11°C° 0,2 mm 4 m/S 717 mmHg 87%
    19:00 +10°C° 0,2 mm 4 m/S 717 mmHg 87%
    20:00 +10°C° 0 mm 4 m/S 717 mmHg 88%
    21:00 +8°C° 0 mm 4 m/S 717 mmHg 88%
    22:00 +7°C° 0 mm 4 m/S 717 mmHg 89%
    23:00 +7°C° 0 mm 4 m/S 717 mmHg 89%

    22 Oktober, Sonntag

    Zeit Temperatur Niederschläge Wind Luftdruck Luftfeuchtigkeit
    00:00 +6°C° 0 mm 4 m/S 717 mmHg 89%
    01:00 +6°C° 0 mm 4 m/S 717 mmHg 89%
    02:00 +6°C° 0 mm 4 m/S 717 mmHg 89%
    03:00 +5°C° 0 mm 4 m/S 717 mmHg 89%
    04:00 +5°C° 0 mm 4 m/S 716 mmHg 89%
    05:00 +5°C° 0 mm 4 m/S 716 mmHg 88%
    06:00 +5°C° 0 mm 4 m/S 716 mmHg 87%
    07:00 +5°C° 0 mm 4 m/S 716 mmHg 87%
    08:00 +5°C° 0 mm 5 m/S 716 mmHg 83%
    09:00 +6°C° 0 mm 5 m/S 716 mmHg 79%
    10:00 +7°C° 0 mm 5 m/S 716 mmHg 76%
    11:00 +7°C° 0,1 mm 5 m/S 716 mmHg 77%
    12:00 +6°C° 0,1 mm 5 m/S 717 mmHg 79%
    13:00 +6°C° 0,1 mm 5 m/S 717 mmHg 81%
    14:00 +6°C° 0,1 mm 4 m/S 717 mmHg 81%
    15:00 +6°C° 0,1 mm 4 m/S 717 mmHg 81%
    16:00 +6°C° 0,1 mm 4 m/S 717 mmHg 81%
    17:00 +6°C° 0 mm 4 m/S 717 mmHg 84%
    18:00 +5°C° 0 mm 3 m/S 717 mmHg 86%
    19:00 +4°C° 0 mm 3 m/S 717 mmHg 88%
    20:00 +4°C° 0,1 mm 4 m/S 718 mmHg 88%
    21:00 +5°C° 0,1 mm 4 m/S 718 mmHg 88%
    22:00 +5°C° 0,1 mm 4 m/S 718 mmHg 88%
    23:00 +5°C° 0,1 mm 4 m/S 718 mmHg 89%

    23 Oktober, Montag

    Zeit Temperatur Niederschläge Wind Luftdruck Luftfeuchtigkeit
    00:00 +5°C° 0,1 mm 4 m/S 719 mmHg 89%
    01:00 +5°C° 0,1 mm 4 m/S 719 mmHg 90%
    02:00 +5°C° 0,1 mm 4 m/S 719 mmHg 91%
    03:00 +5°C° 0,1 mm 4 m/S 719 mmHg 91%
    04:00 +5°C° 0,1 mm 4 m/S 719 mmHg 92%
    05:00 +5°C° 0,1 mm 3 m/S 720 mmHg 92%
    06:00 +5°C° 0,1 mm 3 m/S 720 mmHg 92%
    07:00 +5°C° 0,1 mm 3 m/S 720 mmHg 93%
    08:00 +7°C° 0 mm 3 m/S 721 mmHg 91%
    09:00 +7°C° 0 mm 4 m/S 721 mmHg 89%
    10:00 +7°C° 0 mm 4 m/S 722 mmHg 87%
    11:00 +8°C° 0,1 mm 4 m/S 722 mmHg 84%
    12:00 +8°C° 0,1 mm 4 m/S 722 mmHg 81%
    13:00 +10°C° 0,1 mm 3 m/S 723 mmHg 78%
    14:00 +10°C° 0,1 mm 3 m/S 723 mmHg 79%
    15:00 +10°C° 0,1 mm 3 m/S 723 mmHg 79%
    16:00 +10°C° 0,1 mm 2 m/S 723 mmHg 79%
    17:00 +9°C° 0 mm 2 m/S 723 mmHg 84%
    18:00 +8°C° 0 mm 2 m/S 723 mmHg 89%
    19:00 +7°C° 0 mm 2 m/S 724 mmHg 94%
    20:00 +7°C° 0,1 mm 2 m/S 724 mmHg 94%
    21:00 +7°C° 0,1 mm 2 m/S 724 mmHg 94%
    22:00 +7°C° 0,1 mm 2 m/S 724 mmHg 94%
    23:00 +8°C° 0,4 mm 2 m/S 724 mmHg 95%

    24 Oktober, Dienstag

    Zeit Temperatur Niederschläge Wind Luftdruck Luftfeuchtigkeit
    00:00 +8°C° 0,4 mm 2 m/S 724 mmHg 95%
    01:00 +8°C° 0,4 mm 2 m/S 724 mmHg 96%
    02:00 +8°C° 0,8 mm 2 m/S 724 mmHg 96%
    03:00 +8°C° 0,8 mm 2 m/S 724 mmHg 96%
    04:00 +8°C° 0,8 mm 2 m/S 724 mmHg 96%
    05:00 +9°C° 1 mm 2 m/S 724 mmHg 96%
    06:00 +9°C° 1 mm 2 m/S 724 mmHg 96%
    07:00 +9°C° 1 mm 2 m/S 724 mmHg 97%
    08:00 +9°C° 0,4 mm 2 m/S 725 mmHg 96%
    09:00 +9°C° 0,4 mm 2 m/S 725 mmHg 96%
    10:00 +9°C° 0,4 mm 2 m/S 725 mmHg 96%
    11:00 +10°C° 0,1 mm 2 m/S 725 mmHg 95%
    12:00 +12°C° 0,1 mm 2 m/S 725 mmHg 93%
    13:00 +12°C° 0,1 mm 2 m/S 725 mmHg 92%
    14:00 +12°C° 0 mm 1 m/S 725 mmHg 92%
    15:00 +13°C° 0 mm 1 m/S 725 mmHg 91%
    16:00 +13°C° 0 mm 1 m/S 725 mmHg 91%
    17:00 +12°C° 0 mm 1 m/S 726 mmHg 93%
    18:00 +11°C° 0 mm 0 m/S 726 mmHg 94%
    19:00 +10°C° 0 mm 0 m/S 726 mmHg 96%
    20:00 +10°C° 0 mm 0 m/S 726 mmHg 96%
    21:00 +10°C° 0 mm 0 m/S 726 mmHg 96%
    22:00 +9°C° 0 mm 0 m/S 726 mmHg 96%
    23:00 +9°C° 0 mm 0 m/S 726 mmHg 96%
    Mehr zeigen